Lapse_Rate
7.4 6.7 6.6 5.9 5.5 5.7 6.4 5.9 6.7 7.0 6.3 5.2 4.1 3.1 2.8 3.3 3.4 4.0 3.8 5.2 4.8 4.2
6.9 6.5 6.0 4.8 4.9 5.1 4.4 3.8 4.2 6.0 6.3 5.1 2.4 2.2 2.5 3.0 2.8 3.5 4.7 4.9 4.9 4.4
6.9 5.8 4.9 4.2 3.8 3.8 3.3 2.5 3.4 3.9 3.5 2.7 1.8 0.3 1.9 1.9 2.8 3.1 4.4 5.0 4.8 5.1
5.8 6.0 4.6 4.5 4.3 3.7 3.3 1.6 2.6 2.4 1.7 1.6 0.2 -1.2 0.7 2.0 3.8 4.6 4.1 0.9 2.7 5.4
4.5 5.3 4.4 3.8 3.9 2.8 3.2 3.5 3.3 3.2 0.8 0.9 0.5 -0.0 -0.8 -1.4 -1.1 -0.8 -1.7 -2.6 -2.5 -2.2
3.2 2.6 3.4 2.6 2.3 2.5 3.0 3.6 4.1 4.3 2.5 2.4 1.4 0.2 -0.7 -0.4 -1.3 -2.6 -2.5 -3.7 -5.3 -3.7
2.3 1.3 1.5 1.1 0.5 0.6 2.1 3.7 4.2 5.0 4.2 3.1 2.4 1.5 0.5 0.7 0.2 -0.3 -1.3 -2.1 -2.1 -2.0
1.6 1.2 0.8 -0.5 -0.3 -0.5 -0.7 0.4 3.0 4.1 4.0 3.7 3.1 2.3 0.8 0.3 0.5 0.5 -0.9 -2.2 -2.6 -2.3
1.8 1.1 -0.2 -0.1 -0.5 -0.5 -0.9 0.5 0.1 1.1 2.6 3.3 3.9 2.3 0.9 1.5 0.1 -0.2 -0.5 -0.3 -0.1 -0.9
2.6 2.1 2.2 2.0 1.1 0.9 1.0 1.0 1.6 1.1 0.8 1.3 3.7 3.7 2.6 2.0 1.8 1.8 0.8 -0.1 -0.9 -1.0
3.8 3.5 2.6 1.7 1.1 1.0 0.9 0.3 0.5 -0.3 -0.4 0.7 2.2 3.0 3.1 2.9 2.1 1.3 2.2 2.0 0.9 -0.2
3.7 3.6 3.3 2.4 1.9 2.0 1.5 1.2 1.0 1.4 0.5 -0.3 1.1 3.4 3.2 2.6 2.1 1.4 1.0 1.1 1.6 2.0
4.3 3.4 2.8 2.9 2.8 2.5 1.9 1.6 0.9 0.7 0.8 1.6 2.2 5.2 4.6 4.1 3.4 2.8 2.2 0.9 1.1 2.6
4.5 5.0 4.4 3.7 3.3 3.1 2.5 1.4 0.8 1.6 2.3 1.6 2.3 3.4 6.8 5.3 2.5 2.5 1.9 2.4 2.4 2.7
Wind_Speed
17 11 11 12 12 11 11 11 15 13 10 14 11 9 7 8 9 13 10 10 11 10
16 17 14 15 13 11 12 11 18 13 11 9 6 8 6 7 11 14 17 13 10 10
15 16 16 15 16 16 15 16 17 6 6 5 6 7 11 6 7 11 9 10 12 11
16 14 15 15 16 16 17 19 17 11 9 9 9 8 3 4 4 6 8 10 6 11
16 15 16 16 19 21 21 19 18 16 14 11 11 11 10 12 13 13 13 12 14 15
17 18 18 18 20 22 22 22 20 18 17 15 12 13 14 14 15 16 15 16 18 14
18 19 17 18 20 20 19 22 20 19 19 19 16 17 16 15 15 15 16 18 18 18
17 17 18 20 19 19 20 19 18 20 21 20 20 15 14 15 14 16 19 19 18 18
17 18 18 18 18 18 18 17 19 20 21 23 17 31 32 18 16 18 18 16 15 15
15 16 16 15 15 15 16 16 19 20 21 25 24 33 33 29 16 17 17 16 16 17
14 14 14 15 15 16 15 17 17 20 23 21 22 35 32 27 17 17 18 18 19 18
12 13 13 14 15 13 13 14 17 16 20 21 22 35 33 23 15 16 18 17 21 18
10 11 12 12 12 12 12 13 12 17 19 28 19 32 31 21 9 12 10 14 15 28
8 8 9 9 10 11 12 14 15 13 14 18 20 18 26 25 11 8 9 10 10 11
Wind_Direction
342 334 328 328 324 313 303 295 282 266 251 262 248 239 214 204 199 216 262 237 209 199
347 347 344 347 342 329 319 316 304 250 258 252 271 261 222 207 182 190 202 274 212 211
346 356 353 354 353 347 344 352 341 27 33 356 328 294 235 203 211 189 190 226 277 216
356 0 7 4 1 360 2 7 357 356 39 22 5 354 259 219 183 205 113 81 14 280
2 3 13 13 13 13 15 10 6 6 31 30 27 32 45 66 65 75 68 58 60 33
4 11 14 13 16 20 16 17 14 16 26 26 29 42 57 66 78 79 73 63 67 46
7 14 13 17 19 18 16 18 22 20 31 30 30 37 46 52 63 72 75 73 70 65
11 12 12 21 18 17 18 17 19 27 31 34 37 30 32 37 51 65 69 62 59 57
15 16 17 18 14 21 21 15 23 29 32 31 34 34 40 36 42 45 58 63 55 57
19 19 22 21 25 25 26 26 22 28 35 36 31 28 34 36 45 49 45 47 54 49
24 23 21 23 23 26 25 29 27 26 35 36 31 26 25 27 34 44 47 48 48 51
25 25 24 25 23 25 30 32 37 31 33 34 31 29 26 18 23 39 38 36 44 40
32 28 26 23 25 26 32 35 35 39 34 34 32 34 31 23 21 34 35 38 35 42
28 47 34 29 29 28 30 32 31 33 39 36 31 24 28 33 26 31 35 34 30 30